• In Russia
  • List of Countries
  • For 7 days
  • Water Temperature
  • Satellite Maps
  • Weather Map
  • Weather Widgets
  • user-avatar
    Login

    Hourly Weather Pecel

    Today, 24 August, Thursday

    Time Temperature Precipitation Wind Pressure Humidity
    00:00 +15°C° 0 mm 1 mps 743 mmHg 50%
    01:00 +15°C° 0 mm 1 mps 743 mmHg 51%
    02:00 +14°C° 0 mm 1 mps 743 mmHg 52%
    03:00 +14°C° 0 mm 1 mps 743 mmHg 53%
    04:00 +14°C° 0 mm 1 mps 743 mmHg 54%
    05:00 +15°C° 0 mm 1 mps 743 mmHg 51%
    06:00 +15°C° 0 mm 0 mps 743 mmHg 48%
    07:00 +17°C° 0 mm 0 mps 744 mmHg 45%
    08:00 +21°C° 0 mm 1 mps 744 mmHg 40%
    09:00 +23°C° 0 mm 2 mps 744 mmHg 36%
    10:00 +25°C° 0 mm 2 mps 744 mmHg 32%
    11:00 +26°C° 0 mm 2 mps 744 mmHg 30%
    12:00 +27°C° 0 mm 3 mps 744 mmHg 28%
    13:00 +29°C° 0 mm 3 mps 743 mmHg 26%
    14:00 +29°C° 0 mm 3 mps 743 mmHg 26%
    15:00 +29°C° 0 mm 2 mps 743 mmHg 25%
    16:00 +30°C° 0 mm 2 mps 742 mmHg 24%
    17:00 +28°C° 0 mm 2 mps 742 mmHg 28%
    18:00 +26°C° 0 mm 1 mps 742 mmHg 32%
    19:00 +22°C° 0 mm 0 mps 742 mmHg 36%
    20:00 +23°C° 0 mm 1 mps 743 mmHg 37%
    21:00 +23°C° 0 mm 1 mps 743 mmHg 39%
    22:00 +22°C° 0 mm 1 mps 743 mmHg 40%
    23:00 +21°C° 0 mm 1 mps 743 mmHg 42%

    Tomorrow, 25 August, Friday

    Time Temperature Precipitation Wind Pressure Humidity
    00:00 +21°C° 0 mm 1 mps 743 mmHg 44%
    01:00 +20°C° 0 mm 1 mps 743 mmHg 46%
    02:00 +20°C° 0 mm 1 mps 743 mmHg 48%
    03:00 +20°C° 0 mm 1 mps 743 mmHg 50%
    04:00 +19°C° 0 mm 1 mps 743 mmHg 52%
    05:00 +20°C° 0 mm 1 mps 743 mmHg 50%
    06:00 +21°C° 0 mm 1 mps 743 mmHg 48%
    07:00 +22°C° 0 mm 1 mps 744 mmHg 46%
    08:00 +25°C° 0 mm 1 mps 744 mmHg 41%
    09:00 +27°C° 0 mm 2 mps 744 mmHg 36%
    10:00 +30°C° 0 mm 2 mps 744 mmHg 32%
    11:00 +31°C° 0 mm 2 mps 744 mmHg 29%
    12:00 +34°C° 0 mm 3 mps 743 mmHg 27%
    13:00 +35°C° 0 mm 3 mps 743 mmHg 24%
    14:00 +35°C° 0 mm 3 mps 742 mmHg 24%
    15:00 +36°C° 0 mm 3 mps 742 mmHg 23%
    16:00 +36°C° 0 mm 3 mps 742 mmHg 22%
    17:00 +34°C° 0 mm 2 mps 742 mmHg 26%
    18:00 +31°C° 0 mm 2 mps 741 mmHg 30%
    19:00 +28°C° 0 mm 1 mps 741 mmHg 34%
    20:00 +27°C° 0 mm 2 mps 742 mmHg 36%
    21:00 +27°C° 0 mm 2 mps 742 mmHg 38%
    22:00 +26°C° 0 mm 2 mps 742 mmHg 41%
    23:00 +25°C° 0 mm 2 mps 742 mmHg 42%

    Day after tomorrow, 26 August, Saturday

    Time Temperature Precipitation Wind Pressure Humidity
    00:00 +24°C° 0 mm 2 mps 742 mmHg 44%
    01:00 +24°C° 0 mm 2 mps 742 mmHg 45%
    02:00 +23°C° 0 mm 2 mps 742 mmHg 47%
    03:00 +23°C° 0 mm 2 mps 742 mmHg 48%
    04:00 +22°C° 0 mm 1 mps 742 mmHg 50%
    05:00 +23°C° 0 mm 1 mps 742 mmHg 48%
    06:00 +24°C° 0 mm 1 mps 742 mmHg 47%
    07:00 +25°C° 0 mm 1 mps 742 mmHg 45%
    08:00 +28°C° 0 mm 1 mps 742 mmHg 40%
    09:00 +30°C° 0 mm 1 mps 743 mmHg 36%
    10:00 +32°C° 0 mm 1 mps 743 mmHg 31%
    11:00 +33°C° 0 mm 1 mps 742 mmHg 29%
    12:00 +35°C° 0 mm 1 mps 742 mmHg 27%
    13:00 +37°C° 0 mm 2 mps 742 mmHg 24%
    14:00 +37°C° 0 mm 2 mps 742 mmHg 23%
    15:00 +37°C° 0 mm 2 mps 741 mmHg 23%
    16:00 +36°C° 0 mm 1 mps 741 mmHg 22%
    17:00 +34°C° 0 mm 1 mps 741 mmHg 25%
    18:00 +32°C° 0 mm 1 mps 741 mmHg 29%
    19:00 +30°C° 0 mm 1 mps 741 mmHg 32%
    20:00 +29°C° 0 mm 1 mps 741 mmHg 33%
    21:00 +28°C° 0 mm 2 mps 741 mmHg 35%
    22:00 +27°C° 0 mm 2 mps 741 mmHg 36%
    23:00 +26°C° 0 mm 2 mps 741 mmHg 37%

    27 August, Sunday

    Time Temperature Precipitation Wind Pressure Humidity
    00:00 +25°C° 0 mm 1 mps 741 mmHg 38%
    01:00 +24°C° 0 mm 1 mps 741 mmHg 39%
    02:00 +24°C° 0 mm 1 mps 741 mmHg 40%
    03:00 +23°C° 0 mm 1 mps 741 mmHg 41%
    04:00 +23°C° 0 mm 1 mps 741 mmHg 43%
    05:00 +24°C° 0 mm 1 mps 741 mmHg 41%
    06:00 +25°C° 0 mm 1 mps 741 mmHg 40%
    07:00 +26°C° 0 mm 1 mps 741 mmHg 38%
    08:00 +28°C° 0 mm 1 mps 741 mmHg 33%
    09:00 +30°C° 0 mm 2 mps 742 mmHg 28%
    10:00 +34°C° 0 mm 2 mps 742 mmHg 24%
    11:00 +35°C° 0 mm 2 mps 741 mmHg 22%
    12:00 +37°C° 0 mm 2 mps 741 mmHg 20%
    13:00 +38°C° 0 mm 2 mps 741 mmHg 18%
    14:00 +38°C° 0 mm 2 mps 741 mmHg 18%
    15:00 +37°C° 0 mm 1 mps 740 mmHg 18%
    16:00 +37°C° 0 mm 1 mps 740 mmHg 18%
    17:00 +35°C° 0.1 mm 1 mps 740 mmHg 21%
    18:00 +33°C° 0.1 mm 1 mps 740 mmHg 25%
    19:00 +30°C° 0.1 mm 1 mps 739 mmHg 29%
    20:00 +29°C° 0.4 mm 1 mps 740 mmHg 31%
    21:00 +28°C° 0.4 mm 1 mps 740 mmHg 32%
    22:00 +27°C° 0.4 mm 1 mps 740 mmHg 34%
    23:00 +27°C° 0.2 mm 1 mps 739 mmHg 35%

    28 August, Monday

    Time Temperature Precipitation Wind Pressure Humidity
    00:00 +26°C° 0.2 mm 1 mps 739 mmHg 37%
    01:00 +25°C° 0.2 mm 1 mps 739 mmHg 38%
    02:00 +25°C° 0 mm 1 mps 739 mmHg 40%
    03:00 +24°C° 0 mm 1 mps 739 mmHg 43%
    04:00 +24°C° 0 mm 1 mps 739 mmHg 45%
    05:00 +25°C° 0 mm 1 mps 739 mmHg 45%
    06:00 +25°C° 0 mm 2 mps 740 mmHg 45%
    07:00 +26°C° 0 mm 2 mps 740 mmHg 45%
    08:00 +28°C° 0 mm 2 mps 740 mmHg 43%
    09:00 +30°C° 0 mm 2 mps 740 mmHg 40%
    10:00 +31°C° 0 mm 2 mps 741 mmHg 38%
    11:00 +33°C° 0 mm 3 mps 740 mmHg 36%
    12:00 +34°C° 0 mm 3 mps 740 mmHg 34%
    13:00 +34°C° 0 mm 4 mps 740 mmHg 32%
    14:00 +35°C° 0 mm 4 mps 740 mmHg 32%
    15:00 +35°C° 0 mm 4 mps 740 mmHg 31%
    16:00 +35°C° 0 mm 5 mps 740 mmHg 30%
    17:00 +33°C° 0 mm 4 mps 740 mmHg 35%
    18:00 +30°C° 0 mm 4 mps 740 mmHg 39%
    19:00 +28°C° 0 mm 3 mps 740 mmHg 44%
    20:00 +27°C° 0 mm 3 mps 740 mmHg 47%
    21:00 +27°C° 0 mm 3 mps 741 mmHg 51%
    22:00 +26°C° 0 mm 3 mps 741 mmHg 54%
    23:00 +25°C° 0 mm 3 mps 741 mmHg 56%

    29 August, Tuesday

    Time Temperature Precipitation Wind Pressure Humidity
    00:00 +24°C° 0 mm 2 mps 741 mmHg 58%
    01:00 +24°C° 0 mm 2 mps 741 mmHg 60%
    02:00 +23°C° 0 mm 2 mps 741 mmHg 63%
    03:00 +21°C° 0 mm 2 mps 741 mmHg 66%
    04:00 +21°C° 0 mm 2 mps 741 mmHg 69%
    05:00 +21°C° 0 mm 2 mps 742 mmHg 66%
    06:00 +23°C° 0 mm 2 mps 742 mmHg 63%
    07:00 +24°C° 0 mm 2 mps 742 mmHg 60%
    08:00 +26°C° 0 mm 2 mps 742 mmHg 54%
    09:00 +27°C° 0 mm 1 mps 742 mmHg 48%
    10:00 +29°C° 0 mm 1 mps 742 mmHg 41%
    11:00 +30°C° 0 mm 2 mps 742 mmHg 38%
    12:00 +31°C° 0 mm 2 mps 742 mmHg 34%
    13:00 +32°C° 0 mm 2 mps 741 mmHg 31%
    14:00 +32°C° 0 mm 2 mps 741 mmHg 30%
    15:00 +32°C° 0 mm 2 mps 741 mmHg 30%
    16:00 +32°C° 0 mm 2 mps 741 mmHg 29%
    17:00 +31°C° 0 mm 2 mps 741 mmHg 33%
    18:00 +29°C° 0 mm 2 mps 740 mmHg 37%
    19:00 +27°C° 0 mm 1 mps 740 mmHg 41%
    20:00 +26°C° 0 mm 1 mps 741 mmHg 43%
    21:00 +26°C° 0 mm 2 mps 741 mmHg 45%
    22:00 +25°C° 0 mm 2 mps 741 mmHg 47%
    23:00 +24°C° 0 mm 2 mps 741 mmHg 49%
    Show more